ONEWEB-0047, 45152

Orbit data source: Space-Track

ONEWEB-0047, 45152 is a payload satellite owned by One Web (UK) in LEO that was launched on Thu, 06 Feb 2020 UTC via a SOYUZ-2-1B launch vehicle from the Tyuratam Missile And Space Complex (TTMTR). Payload-class satellites include a variety of spacecraft equipped with specific instruments for various scientific and technological missions. These include communications satellites like Starlink; space stations such as the ISS; scientific satellites like the Hubble; Earth observation satellites from companies like Planet Labs, Umbra, and HawkEye 360; GPS; miniature CubeSats for education and research; and military/defense satellites.

Loading next visibility...
Identifier
45152, 2020-008X
Orbit
LEO
Country
Flag of UKUK
Related business
Manufacturer
One Web
Mission
Operational Commercial Communications
Bus & Motor
ARROW, Unknown motor
Mass
148 kg wet, ~140 kg dry
Launch date (UTC)
2020-02-06 (6 years ago)
Launch vehicle
SOYUZ-2-1B
Launch site
Tyuratam Missile And Space Complex (TTMTR)
Object type
Payload
Rocket body
Debris
Shape & HBR
Trap Box + 2 Pan, 6.7 m
Radar Cross Section
3.464 m², Large (>1 m²)

Expand to show TLE details & history
Last TLE update: 20 hours ago

TLE from 20 hours ago
0 ONEWEB-0047
1 45152U 20008X   25286.89619615  .00000835  00000-0  23547-2 0  9994
2 45152  87.8746  85.3712 0001537  90.5104 269.6200 13.10372050275944
Epoch: 2025-10-13T21:30Z
TLE epoch observation values (Epoch: 2025-10-13T21:30:31.347Z)
Latitude
0.00004°
Longitude
100.04819°
Altitude
1,224.616 km
Speed
7.242 km/s
True Right ascension
05h 41m 29s
True Declination
0° 00' 00"
Sunlit
Object was in daylight at epoch
Visualization orbit readout
Latitude
Unknown
Longitude
Unknown
Altitude
Unknown
Speed
Unknown
Apparent Right ascension
Unknown
Apparent Declination
Unknown
Sunlit
N/A
Visualization observer readout
Local Sidereal Time
11:34:04
Azimuth
Unknown
Elevation
Unknown
Doppler factor
Unknown
Orbital elements
Apogee altitude
1,220.008 km
Perigee altitude
1,217.672 km
Semi-major axis
7,596.977 km
Eccentricity
0.00015
Inclination
87.8746°
RAAN
85.3712°
Arg. of periapsis
90.5104°
True anomaly
269.60239°
Mean anomaly
269.62°
Eccentric anomaly
269.61119°
Mean motion
3.2778 °/min
Orbital period
109.83 mins
BSTAR
0.0023547
Loading maneuver chart data...
Computing Atmospheric mass density...
Loading historical data...
Loading historical data...
Loading historical data...
Loading historical data...
Loading historical data...
Loading historical data...
Loading historical data...

Documentation

Showing up to 5 results
|